Regional Weather Roundup
Issued by NWS

Home | Current Version | Previous Version | Text Only | Print | Product List | Glossary Off
Versions: 1 2 3 4 5 6 7 8 9 10 11 12 13 14 15 16 17 18 19 20 21 22 23 24 25 26 27 28 29 30 31 32 33 34 35 36 37 38 39 40 41 42 43 44 45 46 47 48 49 50

000
ASUS45 KSLC 211610
RWRUT

UTAH REGIONAL WEATHER ROUNDUP
NATIONAL WEATHER SERVICE SALT LAKE CITY UT
900 AM MST TUE NOV 21 2017

UTZ001>011-023>025-211700-

NORTHERN UTAH

CITY           SKY/WX    TMP DP  RH WIND       PRES   REMARKS
BRIGHAM CITY   MOSUNNY   42  37  82 CALM      30.34R
DUGWAY         PTSUNNY   42  33  70 CALM      30.31R
HILL AFB       MOSUNNY   42  34  72 S9        30.32R
LOGAN          CLOUDY    44  41  89 CALM      30.32R
OGDEN          MOSUNNY   44  37  76 CALM      30.32R
SALT LAKE CITY PTSUNNY   45  40  82 CALM      30.33R
TOOELE VALLEY  PTSUNNY   41  37  87 CALM      30.34R
WENDOVER       CLOUDY    42  30  62 CALM      30.34R
HEBER CITY     PTSUNNY   41  36  81 CALM      30.33R
WEST JORDAN    PTSUNNY   44  38  82 CALM      30.33R

$$

UTZ011>015-024>027-211700-

CENTRAL/NORTHEAST UTAH

CITY           SKY/WX    TMP DP  RH WIND       PRES   REMARKS
PROVO AIRPORT  CLOUDY    44  37  76 N3        30.34R
MOAB/CANYONLAN PTSUNNY   37  15  40 CALM      30.35R
DELTA          MOSUNNY   37  23  56 CALM      30.33R
PRICE          CLOUDY    37  13  37 W3        30.35R
ROOSEVELT      CLOUDY    34  18  51 CALM      30.32R
VERNAL         CLOUDY    40  18  41 CALM      30.31R

$$

UTZ013>016-019>022-027-211700-

SOUTHERN UTAH

CITY           SKY/WX    TMP DP  RH WIND       PRES   REMARKS
BRYCE CANYON   MOSUNNY   37  13  37 CALM      30.40R
CEDAR CITY     MOSUNNY   43  20  39 CALM      30.32R
MILFORD        MOSUNNY   36  16  44 SE6       30.33R WCI  31
ST GEORGE      MOSUNNY   41  13  31 CALM      30.32R
HANKSVILLE     PTSUNNY   32  10  40 CALM      30.39R
BLANDING         N/A     46  11  24 SE3       30.39R

$$

REGIONAL REPORTS     COLORADO/ARIZONA

CITY           SKY/WX    TMP DP  RH WIND       PRES   REMARKS
CRAIG, CO      CLOUDY    37  32  82 CALM      30.31R
GRAND JUNCTION CLOUDY    41  22  46 NE5       30.35R
RIFLE, CO      CLOUDY    36  31  82 E5        30.37S WCI  32
MONTROSE, CO   CLOUDY    39  23  52 E3        30.37R
CORTEZ, CO     CLOUDY    41  18  39 CALM      30.31R
COLORADO CITY    N/A     41  10  28 CALM      30.33S
PAGE, AZ       MOSUNNY   43  13  29 SW3       30.32R
GRAND CANYON   MOSUNNY   43  15  32 CALM      30.35S
KINGMAN, AZ    MOSUNNY   55  15  20 NE5       30.27R
FLAGSTAFF, AZ  MOSUNNY   48  18  30 VRB3      30.35R

$$

REGIONAL REPORTS    NEVADA/IDAHO/WYOMING

CITY           SKY/WX    TMP DP  RH WIND       PRES   REMARKS
LAS VEGAS, NV  PTSUNNY   54  17  23 SW3       30.25R
ELY, NY        CLOUDY    48  33  56 CALM      30.38R
ELKO, NV       CLOUDY    46  42  86 W5        30.35R
POCATELLO, ID  CLOUDY    42  40  92 N7        30.32R
BURLEY, ID     SUNNY     50  44  80 SW9       30.28R
FORT BRIDGER,  CLOUDY    42  39  89 W17       30.35R
EVANSTON, WY   CLOUDY    41  36  82 VRB6      30.35R
ROCK SPRINGS,  CLOUDY    39  33  79 W18       30.29R WCI  30
KEMMERER, WY   CLOUDY    36  34  93 SW10      30.33R WCI  28

$$



USA.gov is the U.S. government's official web portal to all federal, state and local government web resources and services.